Time,TemperatureF,DewpointF,PressureIn,WindDirection,WindDirectionDegrees,WindSpeedMPH,WindSpeedGustMPH,Humidity,HourlyPrecipIn,Conditions,Clouds,dailyrainin,SoftwareType,DateUTC
2013-06-03 00:04:00,81.5,76.8,29.88,North,-999,0.0,0.0,86,0.00,,,-99.99,FreeWX 2.03,2013-06-03 05:04:00,
2013-06-03 00:09:00,81.3,76.3,29.88,North,-999,0.0,0.0,85,0.00,,,-99.99,FreeWX 2.03,2013-06-03 05:09:00,
2013-06-03 00:14:00,81.3,75.6,29.85,North,-999,0.0,0.0,83,0.00,,,-99.99,FreeWX 2.03,2013-06-03 05:14:00,
2013-06-03 00:19:00,81.5,75.4,29.85,North,-999,0.0,0.0,82,0.00,,,-99.99,FreeWX 2.03,2013-06-03 05:19:00,
2013-06-03 00:24:00,81.5,75.0,29.85,North,-999,0.0,0.0,81,0.00,,,-99.99,FreeWX 2.03,2013-06-03 05:24:00,
2013-06-03 00:29:00,81.5,74.7,29.88,North,-999,0.0,0.0,80,0.00,,,-99.99,FreeWX 2.03,2013-06-03 05:29:00,
2013-06-03 00:34:00,81.5,74.7,29.88,North,-999,0.0,0.0,80,0.00,,,-99.99,FreeWX 2.03,2013-06-03 05:34:00,
2013-06-03 00:39:00,81.5,74.7,29.88,North,-999,0.0,0.0,80,0.00,,,-99.99,FreeWX 2.03,2013-06-03 05:39:00,
2013-06-03 00:44:00,81.5,74.7,29.88,North,-999,0.0,0.0,80,0.00,,,-99.99,FreeWX 2.03,2013-06-03 05:44:00,
2013-06-03 00:49:00,81.3,74.8,29.88,North,-999,0.0,0.0,81,0.00,,,-99.99,FreeWX 2.03,2013-06-03 05:49:00,
2013-06-03 00:54:00,81.3,74.8,29.88,North,-999,0.0,0.0,81,0.00,,,-99.99,FreeWX 2.03,2013-06-03 05:54:00,
2013-06-03 00:59:00,81.3,75.2,29.88,North,-999,0.0,0.0,82,0.00,,,-99.99,FreeWX 2.03,2013-06-03 05:59:00,
2013-06-03 01:04:00,81.3,75.2,29.88,North,-999,0.0,0.0,82,0.00,,,-99.99,FreeWX 2.03,2013-06-03 06:04:00,
2013-06-03 01:09:00,81.1,75.4,29.88,North,-999,0.0,0.0,83,0.00,,,-99.99,FreeWX 2.03,2013-06-03 06:09:00,
2013-06-03 01:14:00,81.1,75.4,29.88,North,-999,0.0,0.0,83,0.00,,,-99.99,FreeWX 2.03,2013-06-03 06:14:00,
2013-06-03 01:19:00,81.0,75.4,29.88,North,-999,0.0,0.0,83,0.00,,,-99.99,FreeWX 2.03,2013-06-03 06:19:00,
2013-06-03 01:24:00,80.8,75.6,29.88,North,-999,0.0,0.0,84,0.00,,,-99.99,FreeWX 2.03,2013-06-03 06:24:00,
2013-06-03 01:29:00,80.8,75.6,29.88,North,-999,0.0,0.0,84,0.00,,,-99.99,FreeWX 2.03,2013-06-03 06:29:00,
2013-06-03 01:34:00,80.8,75.9,29.88,North,-999,0.0,0.0,85,0.00,,,-99.99,FreeWX 2.03,2013-06-03 06:34:00,
2013-06-03 01:39:00,80.6,75.7,29.88,North,-999,0.0,0.0,85,0.00,,,-99.99,FreeWX 2.03,2013-06-03 06:39:00,
2013-06-03 01:44:00,80.6,75.7,29.88,North,-999,0.0,0.0,85,0.00,,,-99.99,FreeWX 2.03,2013-06-03 06:44:00,
2013-06-03 01:49:00,80.4,75.6,29.88,North,-999,0.0,0.0,85,0.00,,,-99.99,FreeWX 2.03,2013-06-03 06:49:00,
2013-06-03 01:54:00,80.4,75.9,29.88,North,-999,0.0,0.0,86,0.00,,,-99.99,FreeWX 2.03,2013-06-03 06:54:00,
2013-06-03 01:59:00,80.4,75.9,29.88,North,-999,0.0,0.0,86,0.00,,,-99.99,FreeWX 2.03,2013-06-03 06:59:00,
2013-06-03 02:04:00,80.4,76.1,29.88,North,-999,0.0,0.0,87,0.00,,,-99.99,FreeWX 2.03,2013-06-03 07:04:00,
2013-06-03 02:09:00,80.2,75.9,29.88,North,-999,0.0,0.0,87,0.00,,,-99.99,FreeWX 2.03,2013-06-03 07:09:00,
2013-06-03 02:14:00,80.2,75.9,29.88,North,-999,0.0,0.0,87,0.00,,,-99.99,FreeWX 2.03,2013-06-03 07:14:00,
2013-06-03 02:19:00,80.1,76.1,29.88,North,-999,0.0,0.0,88,0.00,,,-99.99,FreeWX 2.03,2013-06-03 07:19:00,
2013-06-03 02:24:00,80.1,76.1,29.88,North,-999,0.0,0.0,88,0.00,,,-99.99,FreeWX 2.03,2013-06-03 07:24:00,
2013-06-03 02:29:00,79.9,75.9,29.88,North,-999,0.0,0.0,88,0.00,,,-99.99,FreeWX 2.03,2013-06-03 07:29:00,
2013-06-03 02:34:00,79.7,75.7,29.88,North,-999,0.0,0.0,88,0.00,,,-99.99,FreeWX 2.03,2013-06-03 07:34:00,
2013-06-03 02:39:00,79.5,75.6,29.88,North,-999,0.0,0.0,88,0.00,,,-99.99,FreeWX 2.03,2013-06-03 07:39:00,
2013-06-03 02:44:00,79.5,75.6,29.88,North,-999,0.0,0.0,88,0.00,,,-99.99,FreeWX 2.03,2013-06-03 07:44:00,
2013-06-03 02:49:00,79.3,75.4,29.88,North,-999,0.0,0.0,88,0.00,,,-99.99,FreeWX 2.03,2013-06-03 07:49:00,
2013-06-03 02:54:00,79.2,75.2,29.88,North,-999,0.0,0.0,88,0.00,,,-99.99,FreeWX 2.03,2013-06-03 07:54:00,
2013-06-03 02:59:00,79.2,75.2,29.88,North,-999,0.0,0.0,88,0.00,,,-99.99,FreeWX 2.03,2013-06-03 07:59:00,
2013-06-03 03:04:00,79.0,75.0,29.88,North,-999,0.0,0.0,88,0.00,,,-99.99,FreeWX 2.03,2013-06-03 08:04:00,
2013-06-03 03:09:00,79.0,75.0,29.88,North,-999,0.0,0.0,88,0.00,,,-99.99,FreeWX 2.03,2013-06-03 08:09:00,
2013-06-03 03:14:00,78.8,75.0,29.88,North,-999,0.0,0.0,88,0.00,,,-99.99,FreeWX 2.03,2013-06-03 08:14:00,
2013-06-03 03:19:00,78.8,75.0,29.88,North,-999,0.0,0.0,88,0.00,,,-99.99,FreeWX 2.03,2013-06-03 08:19:00,
2013-06-03 03:24:00,78.6,74.8,29.88,North,-999,0.0,0.0,88,0.00,,,-99.99,FreeWX 2.03,2013-06-03 08:24:00,
2013-06-03 03:29:00,78.6,75.0,29.88,North,-999,0.0,0.0,89,0.00,,,-99.99,FreeWX 2.03,2013-06-03 08:29:00,
2013-06-03 03:34:00,78.4,74.8,29.88,North,-999,0.0,0.0,89,0.00,,,-99.99,FreeWX 2.03,2013-06-03 08:34:00,
2013-06-03 03:39:00,78.4,74.8,29.88,North,-999,0.0,0.0,89,0.00,,,-99.99,FreeWX 2.03,2013-06-03 08:39:00,
2013-06-03 03:44:00,78.3,74.7,29.88,North,-999,0.0,0.0,89,0.00,,,-99.99,FreeWX 2.03,2013-06-03 08:44:00,
2013-06-03 03:49:00,78.3,74.7,29.88,North,-999,0.0,0.0,89,0.00,,,-99.99,FreeWX 2.03,2013-06-03 08:49:00,
2013-06-03 03:54:00,78.3,75.0,29.88,North,-999,0.0,0.0,90,0.00,,,-99.99,FreeWX 2.03,2013-06-03 08:54:00,
2013-06-03 03:59:00,78.1,74.8,29.88,North,-999,0.0,0.0,90,0.00,,,-99.99,FreeWX 2.03,2013-06-03 08:59:00,
2013-06-03 04:04:00,78.1,74.8,29.88,North,-999,0.0,0.0,90,0.00,,,-99.99,FreeWX 2.03,2013-06-03 09:04:00,
2013-06-03 04:09:00,77.9,74.7,29.88,North,-999,0.0,0.0,90,0.00,,,-99.99,FreeWX 2.03,2013-06-03 09:09:00,
2013-06-03 04:14:00,77.9,74.7,29.88,North,-999,0.0,0.0,90,0.00,,,-99.99,FreeWX 2.03,2013-06-03 09:14:00,
2013-06-03 04:19:00,77.9,74.7,29.88,North,-999,0.0,0.0,90,0.00,,,-99.99,FreeWX 2.03,2013-06-03 09:19:00,
2013-06-03 04:24:00,77.9,74.7,29.88,North,-999,0.0,0.0,90,0.00,,,-99.99,FreeWX 2.03,2013-06-03 09:24:00,
2013-06-03 04:29:00,77.7,74.8,29.88,North,-999,0.0,0.0,91,0.00,,,-99.99,FreeWX 2.03,2013-06-03 09:29:00,
2013-06-03 04:34:00,77.7,74.8,29.88,North,-999,0.0,0.0,91,0.00,,,-99.99,FreeWX 2.03,2013-06-03 09:34:00,
2013-06-03 04:39:00,77.7,74.8,29.88,North,-999,0.0,0.0,91,0.00,,,-99.99,FreeWX 2.03,2013-06-03 09:39:00,
2013-06-03 04:44:00,77.7,74.8,29.88,North,-999,0.0,0.0,91,0.00,,,-99.99,FreeWX 2.03,2013-06-03 09:44:00,
2013-06-03 04:49:00,77.7,74.8,29.88,North,-999,0.0,0.0,91,0.00,,,-99.99,FreeWX 2.03,2013-06-03 09:49:00,
2013-06-03 04:54:00,77.5,75.0,29.88,North,-999,0.0,0.0,92,0.00,,,-99.99,FreeWX 2.03,2013-06-03 09:54:00,
2013-06-03 04:59:00,77.5,75.0,29.88,North,-999,0.0,0.0,92,0.00,,,-99.99,FreeWX 2.03,2013-06-03 09:59:00,
2013-06-03 05:04:00,77.5,75.0,29.88,North,-999,0.0,0.0,92,0.00,,,-99.99,FreeWX 2.03,2013-06-03 10:04:00,
2013-06-03 05:09:00,77.5,75.0,29.88,North,-999,0.0,0.0,92,0.00,,,-99.99,FreeWX 2.03,2013-06-03 10:09:00,
2013-06-03 05:14:00,77.4,74.8,29.88,North,-999,0.0,0.0,92,0.00,,,-99.99,FreeWX 2.03,2013-06-03 10:14:00,
2013-06-03 05:19:00,77.4,74.8,29.88,North,-999,0.0,0.0,92,0.00,,,-99.99,FreeWX 2.03,2013-06-03 10:19:00,
2013-06-03 05:24:00,77.4,75.2,29.88,North,-999,0.0,0.0,93,0.00,,,-99.99,FreeWX 2.03,2013-06-03 10:24:00,
2013-06-03 05:29:00,77.4,75.2,29.88,North,-999,0.0,0.0,93,0.00,,,-99.99,FreeWX 2.03,2013-06-03 10:29:00,
2013-06-03 05:34:00,77.4,75.2,29.88,North,-999,0.0,0.0,93,0.00,,,-99.99,FreeWX 2.03,2013-06-03 10:34:00,
2013-06-03 05:39:00,77.4,75.2,29.88,North,-999,0.0,0.0,93,0.00,,,-99.99,FreeWX 2.03,2013-06-03 10:39:00,
2013-06-03 05:44:00,77.4,75.6,29.88,North,-999,0.0,0.0,94,0.00,,,-99.99,FreeWX 2.03,2013-06-03 10:44:00,
2013-06-03 05:49:00,77.4,75.6,29.88,North,-999,0.0,0.0,94,0.00,,,-99.99,FreeWX 2.03,2013-06-03 10:49:00,
2013-06-03 05:54:00,77.4,75.6,29.88,North,-999,0.0,0.0,94,0.00,,,-99.99,FreeWX 2.03,2013-06-03 10:54:00,
2013-06-03 05:59:00,77.2,75.4,29.88,North,-999,0.0,0.0,94,0.00,,,-99.99,FreeWX 2.03,2013-06-03 10:59:00,
2013-06-03 06:04:00,77.2,75.4,29.88,North,-999,0.0,0.0,94,0.00,,,-99.99,FreeWX 2.03,2013-06-03 11:04:00,
2013-06-03 06:09:00,77.2,75.6,29.88,North,-999,0.0,0.0,95,0.00,,,-99.99,FreeWX 2.03,2013-06-03 11:09:00,
2013-06-03 06:14:00,77.0,75.4,29.91,North,-999,0.0,0.0,95,0.00,,,-99.99,FreeWX 2.03,2013-06-03 11:14:00,
2013-06-03 06:19:00,77.0,75.4,29.91,North,-999,0.0,0.0,95,0.00,,,-99.99,FreeWX 2.03,2013-06-03 11:19:00,
2013-06-03 06:24:00,77.0,75.4,29.91,North,-999,0.0,0.0,95,0.00,,,-99.99,FreeWX 2.03,2013-06-03 11:24:00,
2013-06-03 06:29:00,77.2,75.6,29.91,North,-999,0.0,0.0,95,0.00,,,-99.99,FreeWX 2.03,2013-06-03 11:29:00,
2013-06-03 06:34:00,77.2,75.6,29.91,North,-999,0.0,0.0,95,0.00,,,-99.99,FreeWX 2.03,2013-06-03 11:34:00,
2013-06-03 06:39:00,77.2,75.6,29.91,North,-999,0.0,0.0,95,0.00,,,-99.99,FreeWX 2.03,2013-06-03 11:39:00,
2013-06-03 06:44:00,77.2,75.6,29.91,North,-999,0.0,0.0,95,0.00,,,-99.99,FreeWX 2.03,2013-06-03 11:44:00,
2013-06-03 06:49:00,77.0,75.4,29.91,North,-999,0.0,0.0,95,0.00,,,-99.99,FreeWX 2.03,2013-06-03 11:49:00,
2013-06-03 06:54:00,77.0,75.7,29.91,North,-999,0.0,0.0,96,0.00,,,-99.99,FreeWX 2.03,2013-06-03 11:54:00,
2013-06-03 06:59:00,77.0,75.7,29.91,North,-999,0.0,0.0,96,0.00,,,-99.99,FreeWX 2.03,2013-06-03 11:59:00,
2013-06-03 07:04:00,77.2,75.9,29.91,North,-999,0.0,0.0,96,0.00,,,-99.99,FreeWX 2.03,2013-06-03 12:04:00,
2013-06-03 07:09:00,77.5,76.3,29.91,North,-999,0.0,0.0,96,0.00,,,-99.99,FreeWX 2.03,2013-06-03 12:09:00,
2013-06-03 07:14:00,77.7,76.5,29.91,North,-999,0.0,0.0,96,0.00,,,-99.99,FreeWX 2.03,2013-06-03 12:14:00,
2013-06-03 07:19:00,77.9,76.6,29.91,North,-999,0.0,0.0,96,0.00,,,-99.99,FreeWX 2.03,2013-06-03 12:19:00,
2013-06-03 07:24:00,78.1,77.2,29.91,North,-999,0.0,0.0,97,0.00,,,-99.99,FreeWX 2.03,2013-06-03 12:24:00,
2013-06-03 07:29:00,78.3,77.4,29.91,North,-999,0.0,0.0,97,0.00,,,-99.99,FreeWX 2.03,2013-06-03 12:29:00,
2013-06-03 07:34:00,78.4,77.5,29.91,North,-999,0.0,0.0,97,0.00,,,-99.99,FreeWX 2.03,2013-06-03 12:34:00,
2013-06-03 07:39:00,78.4,77.5,29.91,North,-999,0.0,0.0,97,0.00,,,-99.99,FreeWX 2.03,2013-06-03 12:39:00,
2013-06-03 07:44:00,78.6,77.7,29.91,North,-999,0.0,0.0,97,0.00,,,-99.99,FreeWX 2.03,2013-06-03 12:44:00,
2013-06-03 07:49:00,78.8,77.9,29.91,North,-999,0.0,0.0,97,0.00,,,-99.99,FreeWX 2.03,2013-06-03 12:49:00,
2013-06-03 07:54:00,79.0,78.1,29.91,North,-999,0.0,0.0,97,0.00,,,-99.99,FreeWX 2.03,2013-06-03 12:54:00,
2013-06-03 07:59:00,79.0,78.1,29.91,North,-999,0.0,0.0,97,0.00,,,-99.99,FreeWX 2.03,2013-06-03 12:59:00,
2013-06-03 08:04:00,79.2,78.3,29.91,North,-999,0.0,0.0,97,0.00,,,-99.99,FreeWX 2.03,2013-06-03 13:04:00,
2013-06-03 08:09:00,79.3,78.4,29.91,North,-999,0.0,0.0,97,0.00,,,-99.99,FreeWX 2.03,2013-06-03 13:09:00,
2013-06-03 08:14:00,79.5,78.6,29.91,North,-999,0.0,0.0,97,0.00,,,-99.99,FreeWX 2.03,2013-06-03 13:14:00,
2013-06-03 08:19:00,79.7,78.4,29.91,North,-999,0.0,0.0,96,0.00,,,-99.99,FreeWX 2.03,2013-06-03 13:19:00,
2013-06-03 08:24:00,79.7,78.4,29.91,North,-999,0.0,0.0,96,0.00,,,-99.99,FreeWX 2.03,2013-06-03 13:24:00,
2013-06-03 08:29:00,79.9,78.6,29.91,North,-999,0.0,0.0,96,0.00,,,-99.99,FreeWX 2.03,2013-06-03 13:29:00,
2013-06-03 08:34:00,80.2,79.0,29.91,North,-999,0.0,0.0,96,0.00,,,-99.99,FreeWX 2.03,2013-06-03 13:34:00,
2013-06-03 08:39:00,80.4,78.8,29.91,North,-999,0.0,0.0,95,0.00,,,-99.99,FreeWX 2.03,2013-06-03 13:39:00,
2013-06-03 08:44:00,80.6,79.0,29.91,North,-999,0.0,0.0,95,0.00,,,-99.99,FreeWX 2.03,2013-06-03 13:44:00,
2013-06-03 08:49:00,80.8,78.8,29.91,North,-999,0.0,0.0,94,0.00,,,-99.99,FreeWX 2.03,2013-06-03 13:49:00,
2013-06-03 08:54:00,81.0,79.0,29.91,North,-999,0.0,0.0,94,0.00,,,-99.99,FreeWX 2.03,2013-06-03 13:54:00,
2013-06-03 08:59:00,81.3,79.2,29.91,North,-999,0.0,0.0,93,0.00,,,-99.99,FreeWX 2.03,2013-06-03 13:59:00,
2013-06-03 09:04:00,81.5,79.0,29.91,North,-999,0.0,0.0,92,0.00,,,-99.99,FreeWX 2.03,2013-06-03 14:04:00,
2013-06-03 09:09:00,81.7,78.8,29.91,North,-999,0.0,0.0,91,0.00,,,-99.99,FreeWX 2.03,2013-06-03 14:09:00,
2013-06-03 09:14:00,81.9,79.0,29.91,North,-999,0.0,0.0,91,0.00,,,-99.99,FreeWX 2.03,2013-06-03 14:14:00,
2013-06-03 09:19:00,82.0,79.2,29.91,North,-999,0.0,0.0,91,0.00,,,-99.99,FreeWX 2.03,2013-06-03 14:19:00,
2013-06-03 09:24:00,82.0,78.8,29.91,North,-999,0.0,0.0,90,0.00,,,-99.99,FreeWX 2.03,2013-06-03 14:24:00,
2013-06-03 09:29:00,82.4,78.8,29.91,North,-999,0.0,0.0,89,0.00,,,-99.99,FreeWX 2.03,2013-06-03 14:29:00,
2013-06-03 09:34:00,82.4,78.8,29.91,North,-999,0.0,0.0,89,0.00,,,-99.99,FreeWX 2.03,2013-06-03 14:34:00,
2013-06-03 09:39:00,82.6,79.0,29.91,North,-999,0.0,0.0,89,0.00,,,-99.99,FreeWX 2.03,2013-06-03 14:39:00,
2013-06-03 09:44:00,82.8,79.2,29.91,North,-999,0.0,0.0,89,0.00,,,-99.99,FreeWX 2.03,2013-06-03 14:44:00,
2013-06-03 09:49:00,82.8,78.8,29.91,North,-999,0.0,0.0,88,0.00,,,-99.99,FreeWX 2.03,2013-06-03 14:49:00,
2013-06-03 09:54:00,83.1,79.2,29.91,North,-999,0.0,0.0,88,0.00,,,-99.99,FreeWX 2.03,2013-06-03 14:54:00,
2013-06-03 09:59:00,83.1,78.8,29.91,North,-999,0.0,0.0,87,0.00,,,-99.99,FreeWX 2.03,2013-06-03 14:59:00,
2013-06-03 10:04:00,83.1,78.8,29.91,North,-999,0.0,0.0,87,0.00,,,-99.99,FreeWX 2.03,2013-06-03 15:04:00,
2013-06-03 10:09:00,83.1,78.8,29.91,North,-999,0.0,0.0,87,0.00,,,-99.99,FreeWX 2.03,2013-06-03 15:09:00,
2013-06-03 10:14:00,83.1,78.8,29.91,North,-999,0.0,0.0,87,0.00,,,-99.99,FreeWX 2.03,2013-06-03 15:14:00,
2013-06-03 10:19:00,83.3,79.0,29.91,North,-999,0.0,0.0,87,0.00,,,-99.99,FreeWX 2.03,2013-06-03 15:19:00,
2013-06-03 10:24:00,83.5,79.2,29.91,North,-999,0.0,0.0,87,0.00,,,-99.99,FreeWX 2.03,2013-06-03 15:24:00,
2013-06-03 10:29:00,83.5,78.8,29.91,North,-999,0.0,0.0,86,0.00,,,-99.99,FreeWX 2.03,2013-06-03 15:29:00,
2013-06-03 10:34:00,83.7,79.0,29.91,North,-999,0.0,0.0,86,0.00,,,-99.99,FreeWX 2.03,2013-06-03 15:34:00,
2013-06-03 10:39:00,83.7,78.6,29.91,North,-999,0.0,0.0,85,0.00,,,-99.99,FreeWX 2.03,2013-06-03 15:39:00,
2013-06-03 10:44:00,83.7,78.6,29.91,North,-999,0.0,0.0,85,0.00,,,-99.99,FreeWX 2.03,2013-06-03 15:44:00,
2013-06-03 10:49:00,83.7,78.6,29.91,North,-999,0.0,0.0,85,0.00,,,-99.99,FreeWX 2.03,2013-06-03 15:49:00,
2013-06-03 10:54:00,83.7,78.6,29.91,North,-999,0.0,0.0,85,0.00,,,-99.99,FreeWX 2.03,2013-06-03 15:54:00,
2013-06-03 10:59:00,83.7,78.6,29.91,North,-999,0.0,0.0,85,0.00,,,-99.99,FreeWX 2.03,2013-06-03 15:59:00,
2013-06-03 11:04:00,83.5,78.1,29.91,North,-999,0.0,0.0,84,0.00,,,-99.99,FreeWX 2.03,2013-06-03 16:04:00,
2013-06-03 11:09:00,83.7,78.3,29.91,North,-999,0.0,0.0,84,0.00,,,-99.99,FreeWX 2.03,2013-06-03 16:09:00,
2013-06-03 11:14:00,83.8,78.4,29.91,North,-999,0.0,0.0,84,0.00,,,-99.99,FreeWX 2.03,2013-06-03 16:14:00,
2013-06-03 11:19:00,84.0,78.6,29.91,North,-999,0.0,0.0,84,0.00,,,-99.99,FreeWX 2.03,2013-06-03 16:19:00,
2013-06-03 11:24:00,84.2,78.4,29.91,North,-999,0.0,0.0,83,0.00,,,-99.99,FreeWX 2.03,2013-06-03 16:24:00,
2013-06-03 11:29:00,84.2,78.1,29.91,North,-999,0.0,0.0,82,0.00,,,-99.99,FreeWX 2.03,2013-06-03 16:29:00,
2013-06-03 11:34:00,84.0,77.5,29.91,North,-999,0.0,0.0,81,0.00,,,-99.99,FreeWX 2.03,2013-06-03 16:34:00,
2013-06-03 11:39:00,84.0,77.5,29.91,North,-999,0.0,0.0,81,0.00,,,-99.99,FreeWX 2.03,2013-06-03 16:39:00,
2013-06-03 11:44:00,84.4,78.3,29.91,North,-999,0.0,0.0,82,0.00,,,-99.99,FreeWX 2.03,2013-06-03 16:44:00,
2013-06-03 11:49:00,84.6,78.4,29.91,North,-999,0.0,0.0,82,0.00,,,-99.99,FreeWX 2.03,2013-06-03 16:49:00,
2013-06-03 11:54:00,84.7,78.3,29.91,North,-999,0.0,0.0,81,0.00,,,-99.99,FreeWX 2.03,2013-06-03 16:54:00,
2013-06-03 11:59:00,84.7,77.9,29.91,North,-999,0.0,0.0,80,0.00,,,-99.99,FreeWX 2.03,2013-06-03 16:59:00,
2013-06-03 12:04:00,84.6,77.4,29.91,North,-999,0.0,0.0,79,0.00,,,-99.99,FreeWX 2.03,2013-06-03 17:04:00,
2013-06-03 12:09:00,84.6,77.4,29.91,North,-999,0.0,0.0,79,0.00,,,-99.99,FreeWX 2.03,2013-06-03 17:09:00,
2013-06-03 12:14:00,84.6,77.4,29.91,North,-999,0.0,0.0,79,0.00,,,-99.99,FreeWX 2.03,2013-06-03 17:14:00,
2013-06-03 12:19:00,84.7,77.5,29.91,North,-999,0.0,0.0,79,0.00,,,-99.99,FreeWX 2.03,2013-06-03 17:19:00,
2013-06-03 12:24:00,85.1,77.9,29.91,North,-999,0.0,0.0,79,0.00,,,-99.99,FreeWX 2.03,2013-06-03 17:24:00,
2013-06-03 12:29:00,85.6,78.4,29.88,North,-999,0.0,0.0,79,0.00,,,-99.99,FreeWX 2.03,2013-06-03 17:29:00,
2013-06-03 12:34:00,86.0,78.3,29.88,North,-999,0.0,0.0,78,0.00,,,-99.99,FreeWX 2.03,2013-06-03 17:34:00,
2013-06-03 12:39:00,86.7,78.6,29.88,North,-999,0.0,0.0,77,0.00,,,-99.99,FreeWX 2.03,2013-06-03 17:39:00,
2013-06-03 12:45:00,87.4,79.3,29.88,North,-999,0.0,0.0,77,0.00,,,-99.99,FreeWX 2.03,2013-06-03 17:45:00,
2013-06-03 12:50:00,87.6,78.6,29.88,North,-999,0.0,0.0,75,0.00,,,-99.99,FreeWX 2.03,2013-06-03 17:50:00,
2013-06-03 12:55:00,87.6,78.3,29.88,North,-999,0.0,0.0,74,0.00,,,-99.99,FreeWX 2.03,2013-06-03 17:55:00,
2013-06-03 13:00:00,87.6,77.9,29.88,North,-999,0.0,0.0,73,0.00,,,-99.99,FreeWX 2.03,2013-06-03 18:00:00,
2013-06-03 13:05:00,87.8,78.1,29.88,North,-999,0.0,0.0,73,0.00,,,-99.99,FreeWX 2.03,2013-06-03 18:05:00,
2013-06-03 13:10:00,88.0,78.3,29.88,North,-999,0.0,0.0,73,0.00,,,-99.99,FreeWX 2.03,2013-06-03 18:10:00,
2013-06-03 13:15:00,88.2,77.9,29.88,North,-999,0.0,0.0,72,0.00,,,-99.99,FreeWX 2.03,2013-06-03 18:15:00,
2013-06-03 13:20:00,88.3,78.1,29.88,North,-999,0.0,0.0,72,0.00,,,-99.99,FreeWX 2.03,2013-06-03 18:20:00,
2013-06-03 13:25:00,88.5,78.3,29.88,North,-999,0.0,0.0,72,0.00,,,-99.99,FreeWX 2.03,2013-06-03 18:25:00,
2013-06-03 13:30:00,88.9,78.3,29.88,North,-999,0.0,0.0,71,0.00,,,-99.99,FreeWX 2.03,2013-06-03 18:30:00,
2013-06-03 13:35:00,88.9,77.7,29.88,North,-999,0.0,0.0,70,0.00,,,-99.99,FreeWX 2.03,2013-06-03 18:35:00,
2013-06-03 13:40:00,88.9,77.0,29.88,North,-999,0.0,0.0,68,0.00,,,-99.99,FreeWX 2.03,2013-06-03 18:40:00,
2013-06-03 13:45:00,89.1,77.0,29.88,North,-999,0.0,0.0,68,0.00,,,-99.99,FreeWX 2.03,2013-06-03 18:45:00,
2013-06-03 13:50:00,89.4,77.4,29.88,North,-999,0.0,0.0,68,0.00,,,-99.99,FreeWX 2.03,2013-06-03 18:50:00,
2013-06-03 13:55:00,89.4,77.0,29.88,North,-999,0.0,0.0,67,0.00,,,-99.99,FreeWX 2.03,2013-06-03 18:55:00,
2013-06-03 14:00:00,89.2,76.3,29.88,North,-999,0.0,0.0,66,0.00,,,-99.99,FreeWX 2.03,2013-06-03 19:00:00,
2013-06-03 14:05:00,89.1,76.1,29.88,North,-999,0.0,0.0,66,0.00,,,-99.99,FreeWX 2.03,2013-06-03 19:05:00,
2013-06-03 14:10:00,88.9,75.0,29.88,North,-999,0.0,0.0,64,0.00,,,-99.99,FreeWX 2.03,2013-06-03 19:10:00,
2013-06-03 14:15:00,88.9,75.0,29.85,North,-999,0.0,0.0,64,0.00,,,-99.99,FreeWX 2.03,2013-06-03 19:15:00,
2013-06-03 14:20:00,88.7,74.8,29.85,North,-999,0.0,0.0,64,0.00,,,-99.99,FreeWX 2.03,2013-06-03 19:20:00,
2013-06-03 14:25:00,88.5,75.2,29.85,North,-999,0.0,0.0,65,0.00,,,-99.99,FreeWX 2.03,2013-06-03 19:25:00,
2013-06-03 14:30:00,88.5,74.7,29.85,North,-999,0.0,0.0,64,0.00,,,-99.99,FreeWX 2.03,2013-06-03 19:30:00,
2013-06-03 14:35:00,88.5,75.2,29.85,North,-999,0.0,0.0,65,0.00,,,-99.99,FreeWX 2.03,2013-06-03 19:35:00,
2013-06-03 14:40:00,88.5,74.7,29.85,North,-999,0.0,0.0,64,0.00,,,-99.99,FreeWX 2.03,2013-06-03 19:40:00,
2013-06-03 14:45:00,88.7,74.8,29.85,North,-999,0.0,0.0,64,0.00,,,-99.99,FreeWX 2.03,2013-06-03 19:45:00,
2013-06-03 14:50:00,88.9,74.7,29.85,North,-999,0.0,0.0,63,0.00,,,-99.99,FreeWX 2.03,2013-06-03 19:50:00,
2013-06-03 14:55:00,88.7,73.9,29.85,North,-999,0.0,0.0,62,0.00,,,-99.99,FreeWX 2.03,2013-06-03 19:55:00,
2013-06-03 15:00:00,88.5,73.8,29.85,North,-999,0.0,0.0,62,0.00,,,-99.99,FreeWX 2.03,2013-06-03 20:00:00,
2013-06-03 15:05:00,88.5,74.3,29.85,North,-999,0.0,0.0,63,0.00,,,-99.99,FreeWX 2.03,2013-06-03 20:05:00,
2013-06-03 15:10:00,88.7,74.5,29.85,North,-999,0.0,0.0,63,0.00,,,-99.99,FreeWX 2.03,2013-06-03 20:10:00,
2013-06-03 15:15:00,88.9,74.7,29.85,North,-999,0.0,0.0,63,0.00,,,-99.99,FreeWX 2.03,2013-06-03 20:15:00,
2013-06-03 15:20:00,88.9,73.6,29.85,North,-999,0.0,0.0,61,0.00,,,-99.99,FreeWX 2.03,2013-06-03 20:20:00,
2013-06-03 15:25:00,88.7,73.0,29.85,North,-999,0.0,0.0,60,0.00,,,-99.99,FreeWX 2.03,2013-06-03 20:25:00,
2013-06-03 15:30:00,88.5,73.4,29.85,North,-999,0.0,0.0,61,0.00,,,-99.99,FreeWX 2.03,2013-06-03 20:30:00,
2013-06-03 15:35:00,88.5,73.4,29.85,North,-999,0.0,0.0,61,0.00,,,-99.99,FreeWX 2.03,2013-06-03 20:35:00,
2013-06-03 15:40:00,88.5,73.4,29.85,North,-999,0.0,0.0,61,0.00,,,-99.99,FreeWX 2.03,2013-06-03 20:40:00,
2013-06-03 15:45:00,88.3,72.7,29.85,North,-999,0.0,0.0,60,0.00,,,-99.99,FreeWX 2.03,2013-06-03 20:45:00,
2013-06-03 15:50:00,88.2,72.5,29.85,North,-999,0.0,0.0,60,0.00,,,-99.99,FreeWX 2.03,2013-06-03 20:50:00,
2013-06-03 15:55:00,88.2,72.5,29.82,North,-999,0.0,0.0,60,0.00,,,-99.99,FreeWX 2.03,2013-06-03 20:55:00,
2013-06-03 16:00:00,88.2,72.5,29.82,North,-999,0.0,0.0,60,0.00,,,-99.99,FreeWX 2.03,2013-06-03 21:00:00,
2013-06-03 16:05:00,88.2,72.5,29.82,North,-999,0.0,0.0,60,0.00,,,-99.99,FreeWX 2.03,2013-06-03 21:05:00,
2013-06-03 16:10:00,88.2,72.5,29.82,North,-999,0.0,0.0,60,0.00,,,-99.99,FreeWX 2.03,2013-06-03 21:10:00,
2013-06-03 16:15:00,88.2,72.5,29.82,North,-999,0.0,0.0,60,0.00,,,-99.99,FreeWX 2.03,2013-06-03 21:15:00,
2013-06-03 16:20:00,88.2,72.5,29.82,North,-999,0.0,0.0,60,0.00,,,-99.99,FreeWX 2.03,2013-06-03 21:20:00,
2013-06-03 16:25:00,88.2,72.0,29.82,North,-999,0.0,0.0,59,0.00,,,-99.99,FreeWX 2.03,2013-06-03 21:25:00,
2013-06-03 16:30:00,88.2,72.0,29.82,North,-999,0.0,0.0,59,0.00,,,-99.99,FreeWX 2.03,2013-06-03 21:30:00,
2013-06-03 16:35:00,87.8,71.6,29.82,North,-999,0.0,0.0,59,0.00,,,-99.99,FreeWX 2.03,2013-06-03 21:35:00,
2013-06-03 16:40:00,87.8,72.7,29.82,North,-999,0.0,0.0,61,0.00,,,-99.99,FreeWX 2.03,2013-06-03 21:40:00,
2013-06-03 16:45:00,87.8,72.7,29.82,North,-999,0.0,0.0,61,0.00,,,-99.99,FreeWX 2.03,2013-06-03 21:45:00,
2013-06-03 16:50:00,87.8,72.7,29.82,North,-999,0.0,0.0,61,0.00,,,-99.99,FreeWX 2.03,2013-06-03 21:50:00,
2013-06-03 16:55:00,88.0,72.3,29.82,North,-999,0.0,0.0,60,0.00,,,-99.99,FreeWX 2.03,2013-06-03 21:55:00,
2013-06-03 17:00:00,87.8,72.1,29.82,North,-999,0.0,0.0,60,0.00,,,-99.99,FreeWX 2.03,2013-06-03 22:00:00,
2013-06-03 17:05:00,87.6,72.0,29.82,North,-999,0.0,0.0,60,0.00,,,-99.99,FreeWX 2.03,2013-06-03 22:05:00,
2013-06-03 17:10:00,87.4,72.3,29.82,North,-999,0.0,0.0,61,0.00,,,-99.99,FreeWX 2.03,2013-06-03 22:10:00,
2013-06-03 17:15:00,87.4,72.9,29.82,North,-999,0.0,0.0,62,0.00,,,-99.99,FreeWX 2.03,2013-06-03 22:15:00,
2013-06-03 17:20:00,87.4,72.9,29.82,North,-999,0.0,0.0,62,0.00,,,-99.99,FreeWX 2.03,2013-06-03 22:20:00,
2013-06-03 17:25:00,87.4,72.9,29.82,North,-999,0.0,0.0,62,0.00,,,-99.99,FreeWX 2.03,2013-06-03 22:25:00,
2013-06-03 17:30:00,87.3,72.7,29.82,North,-999,0.0,0.0,62,0.00,,,-99.99,FreeWX 2.03,2013-06-03 22:30:00,
2013-06-03 17:35:00,87.3,72.7,29.82,North,-999,0.0,0.0,62,0.00,,,-99.99,FreeWX 2.03,2013-06-03 22:35:00,
2013-06-03 17:40:00,87.3,73.0,29.82,North,-999,0.0,0.0,63,0.00,,,-99.99,FreeWX 2.03,2013-06-03 22:40:00,
2013-06-03 17:45:00,87.3,73.0,29.82,North,-999,0.0,0.0,63,0.00,,,-99.99,FreeWX 2.03,2013-06-03 22:45:00,
2013-06-03 17:50:00,87.3,73.0,29.82,North,-999,0.0,0.0,63,0.00,,,-99.99,FreeWX 2.03,2013-06-03 22:50:00,
2013-06-03 17:55:00,87.4,73.8,29.82,North,-999,0.0,0.0,64,0.00,,,-99.99,FreeWX 2.03,2013-06-03 22:55:00,
2013-06-03 18:00:00,87.3,73.9,29.82,North,-999,0.0,0.0,65,0.00,,,-99.99,FreeWX 2.03,2013-06-03 23:00:00,
2013-06-03 18:05:00,87.1,73.9,29.82,North,-999,0.0,0.0,65,0.00,,,-99.99,FreeWX 2.03,2013-06-03 23:05:00,
2013-06-03 18:10:00,87.1,73.9,29.79,North,-999,0.0,0.0,65,0.00,,,-99.99,FreeWX 2.03,2013-06-03 23:10:00,
2013-06-03 18:15:00,87.1,74.3,29.79,North,-999,0.0,0.0,66,0.00,,,-99.99,FreeWX 2.03,2013-06-03 23:15:00,
2013-06-03 18:20:00,87.1,74.3,29.79,North,-999,0.0,0.0,66,0.00,,,-99.99,FreeWX 2.03,2013-06-03 23:20:00,
2013-06-03 18:25:00,86.7,73.9,29.79,North,-999,0.0,0.0,66,0.00,,,-99.99,FreeWX 2.03,2013-06-03 23:25:00,
2013-06-03 18:30:00,86.7,74.5,29.79,North,-999,0.0,0.0,67,0.00,,,-99.99,FreeWX 2.03,2013-06-03 23:30:00,
2013-06-03 18:35:00,86.5,74.3,29.79,North,-999,0.0,0.0,67,0.00,,,-99.99,FreeWX 2.03,2013-06-03 23:35:00,
2013-06-03 18:40:00,86.7,74.5,29.79,North,-999,0.0,0.0,67,0.00,,,-99.99,FreeWX 2.03,2013-06-03 23:40:00,
2013-06-03 18:45:00,86.7,74.8,29.79,North,-999,0.0,0.0,68,0.00,,,-99.99,FreeWX 2.03,2013-06-03 23:45:00,
2013-06-03 18:50:00,86.5,74.3,29.79,North,-999,0.0,0.0,67,0.00,,,-99.99,FreeWX 2.03,2013-06-03 23:50:00,
2013-06-03 18:55:00,86.4,74.5,29.79,North,-999,0.0,0.0,68,0.00,,,-99.99,FreeWX 2.03,2013-06-03 23:55:00,
2013-06-03 19:00:00,86.4,74.5,29.79,North,-999,0.0,0.0,68,0.00,,,-99.99,FreeWX 2.03,2013-06-04 00:00:00,
2013-06-03 19:05:00,86.4,74.5,29.79,North,-999,0.0,0.0,68,0.00,,,-99.99,FreeWX 2.03,2013-06-04 00:05:00,
2013-06-03 19:10:00,86.2,74.3,29.79,North,-999,0.0,0.0,68,0.00,,,-99.99,FreeWX 2.03,2013-06-04 00:10:00,
2013-06-03 19:15:00,86.0,74.7,29.79,North,-999,0.0,0.0,69,0.00,,,-99.99,FreeWX 2.03,2013-06-04 00:15:00,
2013-06-03 19:20:00,85.8,74.5,29.79,North,-999,0.0,0.0,69,0.00,,,-99.99,FreeWX 2.03,2013-06-04 00:20:00,
2013-06-03 19:25:00,85.8,74.8,29.79,North,-999,0.0,0.0,70,0.00,,,-99.99,FreeWX 2.03,2013-06-04 00:25:00,
2013-06-03 19:30:00,85.5,74.5,29.79,North,-999,0.0,0.0,70,0.00,,,-99.99,FreeWX 2.03,2013-06-04 00:30:00,
2013-06-03 19:35:00,85.5,75.0,29.79,North,-999,0.0,0.0,71,0.00,,,-99.99,FreeWX 2.03,2013-06-04 00:35:00,
2013-06-03 19:40:00,85.3,74.8,29.79,North,-999,0.0,0.0,71,0.00,,,-99.99,FreeWX 2.03,2013-06-04 00:40:00,
2013-06-03 19:45:00,85.1,74.7,29.79,North,-999,0.0,0.0,71,0.00,,,-99.99,FreeWX 2.03,2013-06-04 00:45:00,
2013-06-03 19:50:00,84.9,74.5,29.79,North,-999,0.0,0.0,71,0.00,,,-99.99,FreeWX 2.03,2013-06-04 00:50:00,
2013-06-03 19:55:00,84.6,74.5,29.82,North,-999,0.0,0.0,72,0.00,,,-99.99,FreeWX 2.03,2013-06-04 00:55:00,
2013-06-03 20:00:00,84.6,74.5,29.82,North,-999,0.0,0.0,72,0.00,,,-99.99,FreeWX 2.03,2013-06-04 01:00:00,
2013-06-03 20:05:00,84.2,74.7,29.82,North,-999,0.0,0.0,73,0.00,,,-99.99,FreeWX 2.03,2013-06-04 01:05:00,
2013-06-03 20:10:00,84.2,74.7,29.82,North,-999,0.0,0.0,73,0.00,,,-99.99,FreeWX 2.03,2013-06-04 01:10:00,
2013-06-03 20:15:00,84.0,74.8,29.82,North,-999,0.0,0.0,74,0.00,,,-99.99,FreeWX 2.03,2013-06-04 01:15:00,
2013-06-03 20:20:00,83.7,74.5,29.82,North,-999,0.0,0.0,74,0.00,,,-99.99,FreeWX 2.03,2013-06-04 01:20:00,
2013-06-03 20:25:00,83.3,74.5,29.82,North,-999,0.0,0.0,75,0.00,,,-99.99,FreeWX 2.03,2013-06-04 01:25:00,
2013-06-03 20:30:00,83.1,74.3,29.82,North,-999,0.0,0.0,75,0.00,,,-99.99,FreeWX 2.03,2013-06-04 01:30:00,
2013-06-03 20:35:00,83.1,74.7,29.82,North,-999,0.0,0.0,76,0.00,,,-99.99,FreeWX 2.03,2013-06-04 01:35:00,
2013-06-03 20:40:00,83.1,75.2,29.82,North,-999,0.0,0.0,77,0.00,,,-99.99,FreeWX 2.03,2013-06-04 01:40:00,
2013-06-03 20:45:00,82.9,75.0,29.82,North,-999,0.0,0.0,77,0.00,,,-99.99,FreeWX 2.03,2013-06-04 01:45:00,
2013-06-03 20:50:00,82.6,74.7,29.82,North,-999,0.0,0.0,77,0.00,,,-99.99,FreeWX 2.03,2013-06-04 01:50:00,
2013-06-03 20:55:00,82.6,75.0,29.82,North,-999,0.0,0.0,78,0.00,,,-99.99,FreeWX 2.03,2013-06-04 01:55:00,
2013-06-03 21:00:00,82.6,75.4,29.82,North,-999,0.0,0.0,79,0.00,,,-99.99,FreeWX 2.03,2013-06-04 02:00:00,
2013-06-03 21:05:00,82.4,74.8,29.82,North,-999,0.0,0.0,78,0.00,,,-99.99,FreeWX 2.03,2013-06-04 02:05:00,
2013-06-03 21:10:00,82.4,75.2,29.82,North,-999,0.0,0.0,79,0.00,,,-99.99,FreeWX 2.03,2013-06-04 02:10:00,
2013-06-03 21:15:00,82.2,75.0,29.82,North,-999,0.0,0.0,79,0.00,,,-99.99,FreeWX 2.03,2013-06-04 02:15:00,
2013-06-03 21:20:00,82.2,75.0,29.82,North,-999,0.0,0.0,79,0.00,,,-99.99,FreeWX 2.03,2013-06-04 02:20:00,
2013-06-03 21:25:00,82.2,75.0,29.82,North,-999,0.0,0.0,79,0.00,,,-99.99,FreeWX 2.03,2013-06-04 02:25:00,
2013-06-03 21:30:00,82.2,75.0,29.82,North,-999,0.0,0.0,79,0.00,,,-99.99,FreeWX 2.03,2013-06-04 02:30:00,
2013-06-03 21:35:00,82.0,74.8,29.82,North,-999,0.0,0.0,79,0.00,,,-99.99,FreeWX 2.03,2013-06-04 02:35:00,
2013-06-03 21:41:00,82.0,75.2,29.82,North,-999,0.0,0.0,80,0.00,,,-99.99,FreeWX 2.03,2013-06-04 02:41:00,
2013-06-03 21:46:00,82.0,75.2,29.82,North,-999,0.0,0.0,80,0.00,,,-99.99,FreeWX 2.03,2013-06-04 02:46:00,
2013-06-03 21:51:00,82.0,75.2,29.82,North,-999,0.0,0.0,80,0.00,,,-99.99,FreeWX 2.03,2013-06-04 02:51:00,
2013-06-03 21:56:00,81.9,75.4,29.85,North,-999,0.0,0.0,81,0.00,,,-99.99,FreeWX 2.03,2013-06-04 02:56:00,
2013-06-03 22:01:00,81.9,75.4,29.85,North,-999,0.0,0.0,81,0.00,,,-99.99,FreeWX 2.03,2013-06-04 03:01:00,
2013-06-03 22:06:00,81.9,75.7,29.85,North,-999,0.0,0.0,82,0.00,,,-99.99,FreeWX 2.03,2013-06-04 03:06:00,
2013-06-03 22:11:00,81.7,75.6,29.85,North,-999,0.0,0.0,82,0.00,,,-99.99,FreeWX 2.03,2013-06-04 03:11:00,
2013-06-03 22:16:00,81.7,75.6,29.85,North,-999,0.0,0.0,82,0.00,,,-99.99,FreeWX 2.03,2013-06-04 03:16:00,
2013-06-03 22:21:00,81.7,75.9,29.85,North,-999,0.0,0.0,83,0.00,,,-99.99,FreeWX 2.03,2013-06-04 03:21:00,
2013-06-03 22:26:00,81.7,75.9,29.85,North,-999,0.0,0.0,83,0.00,,,-99.99,FreeWX 2.03,2013-06-04 03:26:00,
2013-06-03 22:31:00,81.7,75.9,29.85,North,-999,0.0,0.0,83,0.00,,,-99.99,FreeWX 2.03,2013-06-04 03:31:00,
2013-06-03 22:36:00,81.5,75.7,29.85,North,-999,0.0,0.0,83,0.00,,,-99.99,FreeWX 2.03,2013-06-04 03:36:00,
2013-06-03 22:41:00,81.5,75.7,29.85,North,-999,0.0,0.0,83,0.00,,,-99.99,FreeWX 2.03,2013-06-04 03:41:00,
2013-06-03 22:46:00,81.5,76.1,29.85,North,-999,0.0,0.0,84,0.00,,,-99.99,FreeWX 2.03,2013-06-04 03:46:00,
2013-06-03 22:51:00,81.5,76.1,29.85,North,-999,0.0,0.0,84,0.00,,,-99.99,FreeWX 2.03,2013-06-04 03:51:00,
2013-06-03 22:56:00,81.5,76.1,29.85,North,-999,0.0,0.0,84,0.00,,,-99.99,FreeWX 2.03,2013-06-04 03:56:00,
2013-06-03 23:01:00,81.3,75.9,29.85,North,-999,0.0,0.0,84,0.00,,,-99.99,FreeWX 2.03,2013-06-04 04:01:00,
2013-06-03 23:06:00,81.1,75.7,29.85,North,-999,0.0,0.0,84,0.00,,,-99.99,FreeWX 2.03,2013-06-04 04:06:00,
2013-06-03 23:11:00,81.1,76.1,29.85,North,-999,0.0,0.0,85,0.00,,,-99.99,FreeWX 2.03,2013-06-04 04:11:00,
2013-06-03 23:16:00,81.1,76.1,29.85,North,-999,0.0,0.0,85,0.00,,,-99.99,FreeWX 2.03,2013-06-04 04:16:00,
2013-06-03 23:21:00,81.1,76.1,29.85,North,-999,0.0,0.0,85,0.00,,,-99.99,FreeWX 2.03,2013-06-04 04:21:00,
2013-06-03 23:26:00,81.0,75.9,29.85,North,-999,0.0,0.0,85,0.00,,,-99.99,FreeWX 2.03,2013-06-04 04:26:00,
2013-06-03 23:31:00,81.0,75.9,29.85,North,-999,0.0,0.0,85,0.00,,,-99.99,FreeWX 2.03,2013-06-04 04:31:00,
2013-06-03 23:36:00,80.8,76.1,29.85,North,-999,0.0,0.0,86,0.00,,,-99.99,FreeWX 2.03,2013-06-04 04:36:00,
2013-06-03 23:41:00,80.8,76.1,29.85,North,-999,0.0,0.0,86,0.00,,,-99.99,FreeWX 2.03,2013-06-04 04:41:00,
2013-06-03 23:46:00,81.0,76.3,29.85,North,-999,0.0,0.0,86,0.00,,,-99.99,FreeWX 2.03,2013-06-04 04:46:00,
2013-06-03 23:51:00,80.8,76.1,29.85,North,-999,0.0,0.0,86,0.00,,,-99.99,FreeWX 2.03,2013-06-04 04:51:00,
2013-06-03 23:56:00,80.8,76.1,29.85,North,-999,0.0,0.0,86,0.00,,,-99.99,FreeWX 2.03,2013-06-04 04:56:00,